Location: Unspecified
(42.3650°N, 71.1030°W)
Time: 20:54:28
(UTC+00:00)

Vanguard 1 Rocket - Visible Passes

Search period start: 23 June 2024 00:00
Search period end: 03 July 2024 00:00
Orbit: 650 x 4220 km, 34.3° (Epoch: 22 June)

Date Brightness Start Highest point End Pass type
(mag) Time Alt. Az. Time Alt. Az. Time Alt. Az.
23 Jun 9.9 04:23:34 30° SSE 04:26:14 31° SE 04:42:28 10° E visible
23 Jun 10.1 06:40:43 19° SW 06:53:00 62° SSE 07:17:26 10° E visible
24 Jun 10.3 03:15:00 17° ESE 03:15:00 17° ESE 03:23:46 10° E visible
24 Jun 9.7 05:32:08 31° SSW 05:39:12 50° SSE 06:00:33 10° E visible
24 Jun 10.4 07:51:30 10° WSW 08:08:25 69° S 08:34:19 10° ESE visible
25 Jun 9.6 04:23:32 33° SSE 04:26:29 36° SE 04:43:18 10° E visible
25 Jun 10.0 06:40:41 15° WSW 06:53:35 64° SSE 07:17:56 10° E visible
26 Jun 10.0 03:14:55 22° SE 03:14:55 22° SE 03:25:29 10° E visible
26 Jun 9.7 05:32:04 28° SW 05:39:43 55° SSE 06:01:04 10° E visible
26 Jun 10.3 07:52:38 10° W 08:09:02 68° S 08:34:46 10° ESE visible
27 Jun 9.4 04:23:25 35° S 04:26:54 41° SE 04:44:01 10° E visible
27 Jun 10.0 06:40:32 10° WSW 06:54:15 66° S 07:18:23 10° E visible
28 Jun 9.7 03:14:42 26° SE 03:15:01 26° SE 03:26:46 10° E visible
28 Jun 9.6 05:31:50 23° SW 05:40:21 58° SSE 06:01:33 10° E visible
28 Jun 10.3 07:53:47 10° W 08:09:42 66° S 08:35:06 10° ESE visible
29 Jun 10.2 02:05:57 12° ESE 02:05:57 12° ESE 02:07:53 10° ESE visible
29 Jun 9.3 04:23:04 34° SSW 04:27:26 46° SSE 04:44:38 10° E visible
29 Jun 9.9 06:41:42 10° WSW 06:55:00 66° S 07:18:47 10° ESE visible
30 Jun 9.3 03:14:13 30° SSE 03:15:27 30° SE 03:27:47 10° E visible
30 Jun 9.5 05:31:19 15° WSW 05:41:07 61° SSE 06:02:00 10° E visible
30 Jun 10.2 07:54:58 10° W 08:10:21 63° S 08:35:18 10° ESE visible
01 Jul 9.8 02:05:12 16° ESE 02:05:12 16° ESE 02:10:24 10° E visible
01 Jul 9.2 04:22:17 26° SW 04:28:08 50° SSE 04:45:13 10° E visible
01 Jul 9.8 06:42:55 10° W 06:55:47 65° S 07:19:07 10° ESE visible
02 Jul 9.1 03:12:54 29° S 03:16:01 35° SE 03:28:40 10° E visible
02 Jul 9.4 05:31:22 10° WSW 05:41:57 62° S 06:02:26 10° E visible
02 Jul 10.2 07:56:13 10° W 08:11:01 59° SSW 08:35:21 10° ESE visible
